Weather in Vyazovka

Russia / Volgograd Oblast     50°53′11″N   43°56′51″E
temp.,
°C
wind,
m/s
gust,
m/s
humid.,
%
clouds,
%
prec.,
mm/h
press.,
hPa
HPBL,
m
25 february, thu
thu2500:00−21sw228697 0.0 104040
03:00−19s248598 0.0 1038131
06:00−17ssw4895100 0.1 1035288
09:00−14ssw61095100 0.6 1033430
12:00−11ssw71294100 0.9 1030538
15:00−9sw71294100 2.1 1026588
18:00−8ssw81494100 1.3 1022465
21:00−6sw71395100 3.1 1020447
26 february, fri
fri2600:00−2wsw51197100 0.7 1017320
03:00+1wnw61298100 0.8 1017335
06:00+1w4899100 0.1 1016214
09:00+1w37100100 0.2 1016200
12:00+1wsw4899100 0.1 1015250
15:00+1w511100100 0.7 1014357
18:00+1wsw51299100 0.0 1013365
21:00+2w71599100 0.3 1011383
27 february, sat
sat2700:00+2w71598100 0.2 1009463
03:00+1w61397100 0.3 1008420
06:00+1w61295100 0.0 1007487
09:00+1w61296100 0.0 1007536
12:00+1w611100100 0.1 1006592
15:00+1w61198100 0.1 1006636
18:000w61197100 0.1 1005596
21:000w61297100 0.5 1006568
28 february, sun
sun2800:000w61296100 0.3 1005627
03:00−5nnw6129399 0.6 1007409
06:00−8nnw499332 0.0 1009387
09:00−8nnw588919 0.0 1011480
12:00−8nnw578879 0.0 1013524
15:00−8nnw578990 0.0 1014535
18:00−10nnw4993100 0.0 1016404
21:00−11nnw399362 0.0 1019343
1 march, mon
mon100:00−12nnw379413 0.0 1020223
03:00−12nnw36957 0.0 1022166
06:00−13nnw36940 0.0 1023197
09:00−12nnw48900 0.0 1025399
12:00−10nnw478739 0.0 1026456
15:00−9nnw478750 0.0 1027491
18:00−11nw379351 0.0 1028188
21:00−12nw349425 0.0 102990